Location: Unspecified
(52.0000°N, 4.4000°E)
Time: 00:07:37
(UTC+00:00)

Cosmos 1315 Rocket - Pass Details

Date: 14 May 2025
Orbit: 498 x 525 km, 81.2° (Epoch: 23 June)

Event Time Altitude Azimuth Distance (km) Brightness Sun altitude
Exits shadow 22:18:54 37° 179° (S) 833 3.2 -17.0°
Maximum altitude 22:20:21 76° 100° (E) 550 2.6 -17.1°
Drops below altitude 10° 22:24:15 10° 16° (NNE) 1,780 6.2 -17.3°
Sets 22:26:25 0° 15° (NNE) 2,672 7.3 -17.4°
